Wrangell, AK

10:56 AM AKDT on June 26, 2017 (GMT -0800)
Wrangell

Weather History for PAWG - December, 2012

Change the Weather History Date:

Monday, December 3, 2012

  Actual Average Record
Temperature  
Mean Temperature 30 °F -  
Max Temperature 33 °F 36 °F 51 °F (1963)
Min Temperature 26 °F 27 °F 0 °F (1970)
Degree Days  
Heating Degree Days 36    
Moisture  
Dew Point 23 °F    
Average Humidity 79    
Maximum Humidity 86    
Minimum Humidity 69    
Precipitation  
Precipitation 0.00 in - - ()
Sea Level Pressure  
Sea Level Pressure 29.38 in    
Wind  
Wind Speed 12 mph (East)    
Max Wind Speed 21 mph    
Max Gust Speed 26 mph    
Visibility 7 miles    
Events      
Averages and records for this station are not official NWS values.
T = Trace of Precipitation, MM = Missing Value Source: NWS Daily Summary

Daily Weather History Graph

Daily Weather History Graph

Search for Another Location

Airport or City:

Trip Planner

Search our weather history database for the weather conditions in past years. The results will help you decide how hot, cold, wet, or windy it might be!

Date:

Astronomy

Dec. 03, 2012 Rise Set
Actual Time 8:03 AM AKST 3:15 PM AKST
Civil Twilight 7:16 AM AKST 4:01 PM AKST
Nautical Twilight 6:27 AM AKST 4:50 PM AKST
Astronomical Twilight 5:42 AM AKST 5:36 PM AKST
Moon 8:44 PM AKST (12/3) 10:59 AM AKST (12/3)
Length of Visible Light 8h 45m
Length of Day
7h 11m
Waning Gibbous, 77% of the Moon is Illuminated
Dec 3
Waning Gibbous
Dec 6
Last Quarter
Dec 12
New
Dec 19
First Quarter
Dec 28
Full

Hourly Weather History & Observations

Time (AKST) Temp. Windchill Dew Point Humidity Pressure Visibility Wind Dir Wind Speed Gust Speed Precip Events Conditions
12:16 AM 26.6 °F 14.7 °F 21.2 °F 80% 29.30 in 5.0 mi East 15.0 mph 19.6 mph N/A   Mostly Cloudy
12:36 AM 28.4 °F 18.0 °F 23.0 °F 80% 29.31 in 10.0 mi East 12.7 mph 20.7 mph N/A   Mostly Cloudy
12:56 AM 26.6 °F 14.7 °F 21.2 °F 80% 29.31 in 10.0 mi ESE 15.0 mph 21.9 mph N/A   Scattered Clouds
1:16 AM 26.6 °F 15.2 °F 21.2 °F 80% 29.31 in 10.0 mi East 13.8 mph 19.6 mph N/A   Mostly Cloudy
1:36 AM 26.6 °F 16.2 °F 21.2 °F 80% 29.32 in 10.0 mi East 11.5 mph - N/A   Mostly Cloudy
1:56 AM 26.6 °F 17.5 °F 21.2 °F 80% 29.33 in 10.0 mi East 9.2 mph - N/A   Mostly Cloudy
2:16 AM 28.4 °F 21.2 °F 21.2 °F 74% 29.33 in 10.0 mi NE 6.9 mph - N/A   Overcast
2:36 AM 28.4 °F 22.2 °F 19.4 °F 69% 29.34 in 10.0 mi East 5.8 mph - N/A   Overcast
2:56 AM 26.6 °F 17.5 °F 19.4 °F 74% 29.34 in 10.0 mi NE 9.2 mph - N/A   Overcast
3:16 AM 28.4 °F 16.2 °F 21.2 °F 74% 29.34 in 10.0 mi East 17.3 mph - N/A   Mostly Cloudy
3:36 AM 28.4 °F 15.8 °F 21.2 °F 74% 29.33 in 10.0 mi ESE 18.4 mph - N/A   Mostly Cloudy
3:56 AM 28.4 °F 16.6 °F 21.2 °F 74% 29.34 in 10.0 mi East 16.1 mph 21.9 mph N/A   Overcast
4:16 AM 28.4 °F 18.5 °F 21.2 °F 74% 29.34 in 10.0 mi East 11.5 mph 18.4 mph N/A   Overcast
4:36 AM 28.4 °F 17.0 °F 24.8 °F 86% 29.34 in 10.0 mi East 15.0 mph 18.4 mph N/A   Overcast
4:56 AM 30.2 °F 17.4 °F 24.8 °F 80% 29.33 in 10.0 mi East 20.7 mph 26.5 mph N/A   Overcast
5:16 AM 30.2 °F 18.1 °F 24.8 °F 80% 29.34 in 10.0 mi East 18.4 mph 25.3 mph N/A   Overcast
5:36 AM 30.2 °F 18.5 °F 24.8 °F 80% 29.35 in 10.0 mi East 17.3 mph 24.2 mph N/A   Overcast
5:56 AM 30.2 °F 18.9 °F 24.8 °F 80% 29.36 in 10.0 mi East 16.1 mph 25.3 mph N/A   Overcast
6:16 AM 30.2 °F 20.2 °F 23.0 °F 75% 29.37 in 10.0 mi East 12.7 mph 20.7 mph N/A   Overcast
6:36 AM 30.2 °F 22.6 °F 23.0 °F 75% 29.39 in 10.0 mi East 8.1 mph - N/A   Overcast
6:56 AM 28.4 °F 19.1 °F 21.2 °F 74% 29.39 in 7.0 mi East 10.4 mph - N/A   Overcast
7:16 AM 28.4 °F 19.1 °F 23.0 °F 80% 29.39 in 7.0 mi ENE 10.4 mph - N/A   Overcast
7:36 AM 28.4 °F 18.5 °F 23.0 °F 80% 29.40 in 7.0 mi East 11.5 mph - N/A   Overcast
7:56 AM 28.4 °F 18.5 °F 23.0 °F 80% 29.41 in 7.0 mi East 11.5 mph - N/A   Overcast
8:16 AM 28.4 °F 20.4 °F 21.2 °F 74% 29.42 in 7.0 mi East 8.1 mph - N/A   Overcast
8:36 AM 28.4 °F 19.1 °F 24.8 °F 86% 29.42 in 7.0 mi ENE 10.4 mph - N/A   Overcast
8:56 AM 28.4 °F 22.2 °F 23.0 °F 80% 29.44 in 7.0 mi ENE 5.8 mph - N/A   Overcast
9:16 AM 28.4 °F 21.2 °F 23.0 °F 80% 29.44 in 7.0 mi East 6.9 mph - N/A   Overcast
9:36 AM 28.4 °F 20.4 °F 23.0 °F 80% 29.45 in 7.0 mi East 8.1 mph - N/A   Overcast
9:56 AM 28.4 °F 19.7 °F 24.8 °F 86% 29.46 in 3.0 mi East 9.2 mph - N/A   Overcast
10:16 AM 28.4 °F 22.2 °F 23.0 °F 80% 29.47 in 3.0 mi East 5.8 mph - N/A   Overcast
10:36 AM 28.4 °F 18.0 °F 23.0 °F 80% 29.47 in 3.0 mi East 12.7 mph 16.1 mph N/A   Overcast
10:56 AM 28.4 °F 18.5 °F 23.0 °F 80% 29.48 in 1.5 mi ENE 11.5 mph 17.3 mph N/A   Overcast
11:16 AM 28.4 °F 19.7 °F 23.0 °F 80% 29.49 in 1.5 mi East 9.2 mph - N/A   Overcast
11:36 AM 28.4 °F 18.5 °F 24.8 °F 86% 29.49 in 7.0 mi East 11.5 mph - N/A   Overcast
11:56 AM 28.4 °F 18.5 °F 23.0 °F 80% 29.49 in 10.0 mi East 11.5 mph - N/A   Overcast
12:16 PM 28.4 °F 19.1 °F 21.2 °F 74% 29.49 in 10.0 mi East 10.4 mph - N/A   Overcast
12:36 PM 30.2 °F 24.3 °F 23.0 °F 75% 29.49 in 10.0 mi ENE 5.8 mph - N/A   Overcast
12:56 PM 28.4 °F 19.7 °F 24.8 °F 86% 29.49 in 7.0 mi East 9.2 mph - N/A   Overcast
1:16 PM 28.4 °F 19.1 °F 24.8 °F 86% 29.48 in 7.0 mi East 10.4 mph - N/A   Overcast
1:36 PM 28.4 °F 17.5 °F 24.8 °F 86% 29.48 in 7.0 mi ESE 13.8 mph - N/A   Overcast
1:56 PM 28.4 °F 22.2 °F 24.8 °F 86% 29.48 in 2.0 mi North 5.8 mph - N/A   Overcast
2:16 PM 28.4 °F 20.4 °F 24.8 °F 86% 29.48 in 2.0 mi ESE 8.1 mph - N/A   Overcast
2:36 PM 28.4 °F 17.5 °F 24.8 °F 86% 29.47 in 2.0 mi East 13.8 mph 17.3 mph N/A   Overcast
2:56 PM 28.4 °F 19.7 °F 24.8 °F 86% 29.47 in 3.0 mi East 9.2 mph - N/A   Overcast
3:16 PM 30.2 °F 22.6 °F 24.8 °F 80% 29.46 in 2.0 mi East 8.1 mph - N/A   Overcast
3:36 PM 30.2 °F 22.6 °F 24.8 °F 80% 29.45 in 2.0 mi East 8.1 mph - N/A   Overcast
3:56 PM 28.4 °F 19.1 °F 24.8 °F 86% 29.44 in 10.0 mi East 10.4 mph - N/A   Overcast
4:16 PM 28.4 °F 19.7 °F 24.8 °F 86% 29.43 in 10.0 mi ESE 9.2 mph - N/A   Overcast
4:36 PM 30.2 °F 23.4 °F 24.8 °F 80% 29.42 in 10.0 mi East 6.9 mph - N/A   Overcast
4:56 PM 30.2 °F 22.6 °F 23.0 °F 75% 29.41 in 10.0 mi ESE 8.1 mph - N/A   Overcast
5:16 PM 28.4 °F 19.1 °F 21.2 °F 74% 29.39 in 10.0 mi SE 10.4 mph - N/A   Overcast
5:36 PM 28.4 °F 19.7 °F 23.0 °F 80% 29.37 in 10.0 mi ESE 9.2 mph - N/A   Overcast
5:56 PM 28.4 °F 23.3 °F 21.2 °F 74% 29.37 in 10.0 mi SSE 4.6 mph - N/A   Overcast
6:16 PM 30.2 °F 26.7 °F 24.8 °F 80% 29.36 in 10.0 mi NNE 3.5 mph - N/A   Overcast
6:36 PM 30.2 °F 20.2 °F 24.8 °F 80% 29.35 in 10.0 mi East 12.7 mph 16.1 mph N/A   Overcast
6:56 PM 32.0 °F 21.6 °F 24.8 °F 75% 29.34 in 2.0 mi East 15.0 mph - N/A   Overcast
7:16 PM 30.2 °F 20.2 °F 24.8 °F 80% 29.34 in 2.0 mi East 12.7 mph - N/A   Overcast
7:36 PM 32.0 °F 21.2 °F 26.6 °F 80% 29.33 in 2.0 mi East 16.1 mph 23.0 mph N/A   Overcast
7:56 PM 32.0 °F 22.1 °F 26.6 °F 80% 29.32 in 7.0 mi East 13.8 mph 18.4 mph N/A   Overcast
8:16 PM 32.0 °F 22.5 °F 26.6 °F 80% 29.30 in 7.0 mi East 12.7 mph - N/A   Overcast
8:36 PM 32.0 °F 22.1 °F 26.6 °F 80% 29.29 in 7.0 mi East 13.8 mph 19.6 mph N/A   Overcast
8:56 PM 33.8 °F 24.3 °F 24.8 °F 70% 29.29 in 7.0 mi East 13.8 mph 19.6 mph N/A   Overcast
9:16 PM 30.2 °F 26.7 °F 21.2 °F 69% 29.30 in 7.0 mi North 3.5 mph - N/A   Overcast
9:36 PM 30.2 °F 20.2 °F 24.8 °F 80% 29.28 in 3.0 mi East 12.7 mph 16.1 mph N/A   Overcast
9:56 PM 32.0 °F 22.1 °F 26.6 °F 80% 29.27 in 3.0 mi East 13.8 mph 19.6 mph N/A   Overcast
10:16 PM 33.8 °F 27.7 °F 26.6 °F 75% 29.26 in 3.0 mi East 6.9 mph - N/A   Overcast
10:36 PM 32.0 °F 24.8 °F 24.8 °F 75% 29.26 in 3.0 mi East 8.1 mph - N/A   Overcast
10:56 PM 28.4 °F - 21.2 °F 74% 29.26 in 3.0 mi Calm Calm - N/A   Overcast
11:16 PM 28.4 °F 24.6 °F 21.2 °F 74% 29.26 in 10.0 mi North 3.5 mph - N/A   Overcast
11:36 PM 26.6 °F 22.6 °F 19.4 °F 74% 29.26 in 10.0 mi NW 3.5 mph - N/A   Overcast
11:56 PM 26.6 °F 18.2 °F 19.4 °F 74% 29.24 in 10.0 mi NNW 8.1 mph - N/A   Overcast